Hourly Weather Primorsko

Today, 11 August, Tuesday

Time Temperature Precipitation Wind Pressure Humidity
00:00 +21°C° 0 mm 1 mps 759 mmHg 81%
01:00 +20°C° 0 mm 2 mps 759 mmHg 80%
02:00 +20°C° 0 mm 2 mps 759 mmHg 81%
03:00 +20°C° 0 mm 2 mps 759 mmHg 79%
04:00 +20°C° 0 mm 2 mps 759 mmHg 78%
05:00 +20°C° 0 mm 2 mps 759 mmHg 77%
06:00 +23°C° 0 mm 2 mps 759 mmHg 65%
07:00 +26°C° 0 mm 2 mps 759 mmHg 54%
08:00 +29°C° 0 mm 2 mps 760 mmHg 41%
09:00 +30°C° 0 mm 3 mps 760 mmHg 37%
10:00 +31°C° 0 mm 3 mps 760 mmHg 33%
11:00 +34°C° 0 mm 3 mps 760 mmHg 29%
12:00 +34°C° 0 mm 4 mps 760 mmHg 29%
13:00 +34°C° 0 mm 4 mps 759 mmHg 29%
14:00 +34°C° 0 mm 4 mps 759 mmHg 29%
15:00 +34°C° 0 mm 4 mps 759 mmHg 30%
16:00 +33°C° 0 mm 4 mps 759 mmHg 32%
17:00 +32°C° 0 mm 4 mps 759 mmHg 34%
18:00 +29°C° 0 mm 3 mps 759 mmHg 41%
19:00 +27°C° 0 mm 2 mps 759 mmHg 49%
20:00 +24°C° 0 mm 2 mps 759 mmHg 56%
21:00 +24°C° 0 mm 2 mps 760 mmHg 56%
22:00 +23°C° 0 mm 1 mps 760 mmHg 56%
23:00 +23°C° 0 mm 1 mps 760 mmHg 56%

Tomorrow, 12 August, Wednesday

Time Temperature Precipitation Wind Pressure Humidity
00:00 +23°C° 0 mm 1 mps 759 mmHg 55%
01:00 +22°C° 0 mm 1 mps 759 mmHg 55%
02:00 +21°C° 0 mm 2 mps 759 mmHg 55%
03:00 +21°C° 0 mm 2 mps 759 mmHg 54%
04:00 +21°C° 0 mm 2 mps 759 mmHg 53%
05:00 +21°C° 0 mm 2 mps 759 mmHg 53%
06:00 +24°C° 0 mm 2 mps 759 mmHg 47%
07:00 +27°C° 0 mm 2 mps 759 mmHg 41%
08:00 +30°C° 0 mm 2 mps 759 mmHg 35%
09:00 +31°C° 0 mm 2 mps 759 mmHg 33%
10:00 +32°C° 0 mm 2 mps 759 mmHg 31%
11:00 +35°C° 0 mm 2 mps 759 mmHg 29%
12:00 +35°C° 0 mm 3 mps 759 mmHg 29%
13:00 +35°C° 0 mm 4 mps 759 mmHg 30%
14:00 +35°C° 0 mm 5 mps 758 mmHg 31%
15:00 +34°C° 0 mm 5 mps 758 mmHg 33%
16:00 +34°C° 0 mm 4 mps 758 mmHg 35%
17:00 +33°C° 0 mm 4 mps 758 mmHg 37%
18:00 +30°C° 0 mm 3 mps 759 mmHg 45%
19:00 +27°C° 0 mm 3 mps 759 mmHg 54%
20:00 +25°C° 0 mm 2 mps 759 mmHg 63%
21:00 +24°C° 0 mm 2 mps 759 mmHg 63%
22:00 +24°C° 0 mm 1 mps 759 mmHg 63%
23:00 +23°C° 0 mm 1 mps 759 mmHg 64%

Day after tomorrow, 13 August, Thursday

Time Temperature Precipitation Wind Pressure Humidity
00:00 +23°C° 0 mm 1 mps 760 mmHg 64%
01:00 +23°C° 0 mm 1 mps 760 mmHg 65%
02:00 +22°C° 0 mm 1 mps 760 mmHg 65%
03:00 +22°C° 0 mm 1 mps 760 mmHg 66%
04:00 +21°C° 0 mm 2 mps 760 mmHg 66%
05:00 +21°C° 0 mm 2 mps 760 mmHg 67%
06:00 +24°C° 0 mm 3 mps 760 mmHg 64%
07:00 +26°C° 0 mm 3 mps 760 mmHg 60%
08:00 +28°C° 0 mm 4 mps 760 mmHg 57%
09:00 +29°C° 0.1 mm 4 mps 761 mmHg 53%
10:00 +30°C° 0.1 mm 4 mps 761 mmHg 50%
11:00 +32°C° 0.1 mm 4 mps 761 mmHg 46%
12:00 +32°C° 0 mm 5 mps 761 mmHg 46%
13:00 +32°C° 0 mm 5 mps 760 mmHg 45%
14:00 +33°C° 0 mm 6 mps 760 mmHg 44%
15:00 +30°C° 0 mm 6 mps 760 mmHg 51%
16:00 +29°C° 0 mm 6 mps 760 mmHg 58%
17:00 +28°C° 0 mm 6 mps 760 mmHg 65%
18:00 +26°C° 0 mm 5 mps 760 mmHg 74%
19:00 +25°C° 0 mm 4 mps 761 mmHg 82%
20:00 +22°C° 0 mm 3 mps 761 mmHg 91%
21:00 +21°C° 0 mm 3 mps 761 mmHg 91%
22:00 +21°C° 0 mm 3 mps 761 mmHg 91%
23:00 +21°C° 0 mm 3 mps 761 mmHg 92%

14 August, Friday

Time Temperature Precipitation Wind Pressure Humidity
00:00 +20°C° 0 mm 2 mps 761 mmHg 91%
01:00 +20°C° 0 mm 2 mps 761 mmHg 90%
02:00 +20°C° 0 mm 1 mps 761 mmHg 89%
03:00 +20°C° 0 mm 1 mps 761 mmHg 90%
04:00 +20°C° 0 mm 1 mps 760 mmHg 90%
05:00 +19°C° 0 mm 1 mps 760 mmHg 91%
06:00 +21°C° 0 mm 1 mps 760 mmHg 81%
07:00 +24°C° 0 mm 1 mps 760 mmHg 72%
08:00 +26°C° 0 mm 1 mps 760 mmHg 62%
09:00 +27°C° 0 mm 2 mps 760 mmHg 55%
10:00 +28°C° 0 mm 2 mps 760 mmHg 48%
11:00 +30°C° 0 mm 3 mps 760 mmHg 40%
12:00 +30°C° 0 mm 4 mps 760 mmHg 39%
13:00 +30°C° 0 mm 4 mps 760 mmHg 38%
14:00 +32°C° 0 mm 4 mps 759 mmHg 37%
15:00 +30°C° 0 mm 5 mps 759 mmHg 39%
16:00 +29°C° 0 mm 5 mps 759 mmHg 41%
17:00 +28°C° 0 mm 5 mps 759 mmHg 44%
18:00 +26°C° 0 mm 5 mps 759 mmHg 51%
19:00 +23°C° 0 mm 5 mps 759 mmHg 59%
20:00 +21°C° 0 mm 4 mps 759 mmHg 67%
21:00 +21°C° 0 mm 4 mps 759 mmHg 71%
22:00 +21°C° 0 mm 4 mps 759 mmHg 76%
23:00 +20°C° 0 mm 4 mps 759 mmHg 81%

15 August, Saturday

Time Temperature Precipitation Wind Pressure Humidity
00:00 +20°C° 0 mm 3 mps 759 mmHg 82%
01:00 +19°C° 0 mm 2 mps 759 mmHg 84%
02:00 +19°C° 0 mm 2 mps 759 mmHg 85%
03:00 +20°C° 0 mm 1 mps 759 mmHg 86%
04:00 +19°C° 0 mm 1 mps 759 mmHg 86%
05:00 +19°C° 0 mm 1 mps 759 mmHg 87%
06:00 +20°C° 0 mm 2 mps 759 mmHg 77%
07:00 +24°C° 0 mm 2 mps 759 mmHg 68%
08:00 +26°C° 0 mm 2 mps 759 mmHg 58%
09:00 +27°C° 0 mm 3 mps 759 mmHg 53%
10:00 +28°C° 0 mm 4 mps 759 mmHg 48%
11:00 +30°C° 0 mm 5 mps 759 mmHg 42%
12:00 +30°C° 0 mm 5 mps 759 mmHg 42%
13:00 +30°C° 0 mm 5 mps 759 mmHg 42%
14:00 +30°C° 0 mm 6 mps 758 mmHg 42%
15:00 +29°C° 0 mm 6 mps 758 mmHg 45%
16:00 +28°C° 0 mm 6 mps 758 mmHg 48%
17:00 +27°C° 0 mm 5 mps 758 mmHg 50%
18:00 +26°C° 0 mm 5 mps 758 mmHg 59%
19:00 +23°C° 0 mm 5 mps 758 mmHg 67%
20:00 +22°C° 0 mm 5 mps 758 mmHg 76%
21:00 +21°C° 0 mm 5 mps 758 mmHg 77%
22:00 +21°C° 0 mm 5 mps 758 mmHg 78%
23:00 +21°C° 0 mm 5 mps 758 mmHg 79%

16 August, Sunday

Time Temperature Precipitation Wind Pressure Humidity
00:00 +21°C° 0 mm 4 mps 758 mmHg 82%
01:00 +20°C° 0 mm 4 mps 758 mmHg 84%
02:00 +20°C° 0 mm 4 mps 758 mmHg 87%
03:00 +20°C° 0 mm 4 mps 758 mmHg 87%
04:00 +20°C° 0 mm 4 mps 758 mmHg 87%
05:00 +20°C° 0 mm 5 mps 757 mmHg 86%
06:00 +22°C° 0 mm 5 mps 758 mmHg 79%
07:00 +23°C° 0 mm 5 mps 758 mmHg 71%
08:00 +25°C° 0 mm 5 mps 758 mmHg 64%
09:00 +26°C° 0 mm 5 mps 758 mmHg 59%
10:00 +27°C° 0 mm 5 mps 758 mmHg 54%
11:00 +28°C° 0 mm 5 mps 759 mmHg 49%
12:00 +28°C° 0 mm 5 mps 759 mmHg 49%
13:00 +28°C° 0 mm 6 mps 759 mmHg 49%
14:00 +28°C° 0 mm 6 mps 759 mmHg 49%
15:00 +28°C° 0 mm 7 mps 759 mmHg 50%
16:00 +27°C° 0 mm 7 mps 759 mmHg 52%
17:00 +26°C° 0 mm 7 mps 759 mmHg 54%
18:00 +24°C° 0 mm 7 mps 759 mmHg 60%
19:00 +23°C° 0 mm 7 mps 760 mmHg 67%
20:00 +21°C° 0 mm 7 mps 760 mmHg 74%
21:00 +21°C° 0 mm 6 mps 760 mmHg 73%
22:00 +21°C° 0 mm 6 mps 760 mmHg 72%
23:00 +21°C° 0 mm 6 mps 760 mmHg 71%
Show more